{"data":{"norad_id":66549,"epoch":"2026-09-20T00:22:08.755968Z","epoch_age_seconds":59893,"freshness":"FRESH","line1":"1 66549U 25277A   26263.01537912 -.00000369  00000+0  00000+0 0  9997","line2":"2 66549   4.3012 270.6676 0001274  94.8818 115.7718  1.00275127  3107","mean_motion":1.00275127,"eccentricity":0.0001274,"inclination_deg":4.3012,"raan_deg":270.6676,"arg_perigee_deg":94.8818,"mean_anomaly_deg":115.7718,"bstar":0,"rev_number":310,"period_min":1436.049041354,"perigee_km":35780.286435797,"apogee_km":35791.029770789,"semimajor_km":42163.795103293,"source":"CELESTRAK","updated_at":"2026-09-20T09:00:35.347042Z"}}